[[{"header":{"parameterUnit":"m.s-1","parameterCategory":1,"la1":30.2992,"la2":30.254,"lo1":-89.0895,"lo2":-89.0443,"dy":0.0025,"dx":0.0025,"nx":19,"ny":19,"refTime":"2026-04-30T09:00:00:Z","depth":0,"parameterNumber":2,"parameterNumberName":"U-component_of_WINDS"},"data":[0,0,0,-2.6337,-2.6339,-2.6441,-2.6442,-2.6561,-2.6562,0,0,0,0,0,0,0,0,0,0,0,-2.6301,-2.6301,-2.6337,-2.6339,-2.6441,-2.6442,-2.6561,-2.6562,0,0,0,0,0,0,0,0,0,0,0,-2.63,-2.6301,-2.6302,-2.634,-2.6441,-2.6442,-2.6561,-2.6488,0,0,0,0,0,0,0,0,0,0,-2.639,-2.6351,-2.6301,-2.6302,-2.634,-2.6441,-2.6442,-2.6484,-2.6492,-2.651,0,-2.6525,0,-2.6545,-2.6569,-2.657,0,0,0,-2.6344,-2.6344,-2.6377,-2.6302,-2.6341,-2.6441,-2.6397,-2.6489,-2.6498,-2.6521,-2.6527,-2.6531,-2.6547,-2.657,-2.6571,-2.6658,-2.6658,0,0,-2.6338,-2.6316,-2.6371,-2.6383,-2.6366,-2.6393,-2.64,-2.6494,-2.6499,-2.6527,-2.6534,-2.6549,-2.6571,-2.6572,-2.6658,-2.6658,0,0,0,-2.6319,-2.6311,-2.6343,-2.6377,-2.6397,-2.6396,-2.6404,-2.6495,-2.6507,-2.6536,-2.6551,-2.6571,-2.6573,-2.6658,-2.6658,-2.6644,0,0,0,-2.6316,-2.63,-2.634,-2.6327,-2.6395,-2.6447,-2.6402,-2.6501,-2.6512,-2.655,-2.6572,-2.6574,-2.6658,-2.6658,-2.6644,-2.6641,0,0,0,-2.6296,-2.6298,-2.631,-2.6325,-2.6368,-2.6446,-2.6464,-2.6504,-2.6521,-2.657,-2.6574,-2.6658,-2.6658,-2.6644,-2.6641,-2.6657,0,0,0,-2.6268,-2.6297,-2.631,-2.6348,-2.6367,-2.6437,-2.6464,-2.6517,-2.6557,-2.6572,-2.6658,-2.6658,-2.6644,-2.6641,-2.6656,-2.6665,-2.6666,0,0,-2.6292,-2.6299,-2.6324,-2.6338,-2.6399,-2.6423,-2.6483,-2.6542,-2.6568,-2.6626,-2.6629,-2.6644,-2.6641,-2.6656,-2.6684,-2.6685,0,0,0,-2.6323,-2.634,-2.6362,-2.6399,-2.6444,-2.6482,-2.6535,-2.6556,-2.6607,-2.6593,-2.6655,-2.6654,-2.6664,-2.6669,-2.667,-2.6679,-2.666,-2.666,-2.6659,-2.6324,-2.6355,-2.6397,-2.6439,-2.6475,-2.6528,-2.6559,-2.6597,-2.6619,-2.6633,-2.665,-2.6663,-2.6668,-2.6669,-2.6678,-2.6658,-2.6658,-2.6658,-2.6658,-2.6361,-2.6389,-2.6416,-2.6466,-2.6498,-2.6541,-2.6592,-2.6606,-2.665,-2.6653,-2.6663,-2.6663,-2.6669,-2.6679,-2.6657,-2.6657,-2.6657,-2.6657,-2.6657,-2.6364,-2.6383,-2.6409,-2.6464,-2.6503,-2.6546,-2.6586,-2.6615,-2.6642,-2.6652,-2.6672,-2.6673,-2.6676,-2.666,-2.666,-2.666,-2.666,-2.666,-2.666,-2.6357,-2.6386,-2.6417,-2.6466,-2.6493,-2.6531,-2.6584,-2.6611,-2.6648,-2.6666,-2.6666,-2.6685,-2.6664,-2.6658,-2.6661,-2.6661,-2.6661,-2.666,-2.666,-2.6381,-2.638,-2.6427,-2.6453,-2.6513,-2.655,-2.6585,-2.6638,-2.6664,-2.6683,-2.67,-2.668,-2.669,-2.6689,-2.6684,-2.6694,-2.6694,-2.6694,-2.6694,-2.6383,-2.6391,-2.6444,-2.6485,-2.6528,-2.6564,-2.6615,-2.6656,-2.6698,-2.6716,-2.6719,-2.6714,-2.6713,-2.6723,-2.6722,-2.6718,-2.6736,-2.6736,-2.6736,-2.64,-2.6412,-2.645,-2.6491,-2.6539,-2.658,-2.6629,-2.6674,-2.6721,-2.6738,-2.673,-2.6729,-2.6722,-2.6719,-2.6735,-2.6732,-2.6725,0,0]},{"header":{"parameterUnit":"m.s-1","parameterCategory":1,"la1":30.2992,"la2":30.254,"lo1":-89.0895,"lo2":-89.0443,"dy":0.0025,"dx":0.0025,"nx":19,"ny":19,"refTime":"2026-04-30T09:00:00:Z","depth":0,"parameterNumber":3,"parameterNumberName":"V-component_of_WINDS"},"data":[0,0,0,-3.382,-3.3816,-3.3629,-3.3628,-3.3392,-3.339,0,0,0,0,0,0,0,0,0,0,0,-3.3884,-3.3883,-3.382,-3.3816,-3.3629,-3.3628,-3.3393,-3.339,0,0,0,0,0,0,0,0,0,0,0,-3.3885,-3.3883,-3.3882,-3.3815,-3.3629,-3.3628,-3.3393,-3.3531,0,0,0,0,0,0,0,0,0,0,-3.3712,-3.3782,-3.3884,-3.3882,-3.3814,-3.363,-3.3628,-3.3538,-3.3523,-3.3481,0,-3.3452,0,-3.3418,-3.3376,-3.3375,0,0,0,-3.3807,-3.3795,-3.3737,-3.3882,-3.3812,-3.363,-3.3711,-3.3529,-3.3512,-3.3461,-3.3448,-3.3439,-3.3414,-3.3374,-3.3373,-3.3169,-3.3168,0,0,-3.3818,-3.3854,-3.3749,-3.3726,-3.3763,-3.3717,-3.3705,-3.3519,-3.3505,-3.3447,-3.3433,-3.341,-3.3373,-3.3371,-3.3169,-3.3169,0,0,0,-3.3853,-3.3861,-3.3808,-3.3736,-3.3703,-3.3712,-3.3698,-3.3513,-3.3493,-3.3431,-3.3407,-3.3371,-3.3369,-3.317,-3.3169,-3.3176,0,0,0,-3.3859,-3.3882,-3.3813,-3.3833,-3.3706,-3.3607,-3.3697,-3.3506,-3.3484,-3.3408,-3.3371,-3.3366,-3.3171,-3.317,-3.3177,-3.3172,0,0,0,-3.3893,-3.3886,-3.3863,-3.3835,-3.3757,-3.3609,-3.3578,-3.3501,-3.347,-3.3375,-3.3366,-3.3171,-3.317,-3.3178,-3.3174,-3.3126,0,0,0,-3.3939,-3.3872,-3.3863,-3.3778,-3.3759,-3.3618,-3.3579,-3.3471,-3.339,-3.337,-3.3171,-3.3169,-3.3179,-3.3175,-3.3127,-3.3091,-3.308,0,0,-3.3873,-3.3865,-3.3812,-3.3799,-3.3669,-3.3643,-3.3511,-3.3401,-3.3356,-3.3232,-3.3227,-3.3177,-3.3174,-3.3126,-3.3014,-3.3006,0,0,0,-3.3803,-3.3765,-3.3722,-3.3649,-3.3566,-3.3491,-3.3399,-3.3356,-3.325,-3.3303,-3.3147,-3.3144,-3.3115,-3.3095,-3.3088,-3.3058,-3.3163,-3.3163,-3.3163,-3.3761,-3.371,-3.3616,-3.3542,-3.3471,-3.3374,-3.3309,-3.3235,-3.3203,-3.3167,-3.3129,-3.3068,-3.3046,-3.3041,-3.301,-3.3108,-3.3108,-3.3108,-3.3108,-3.3657,-3.3593,-3.3553,-3.3448,-3.3391,-3.33,-3.3201,-3.3181,-3.3083,-3.3093,-3.3064,-3.3077,-3.3034,-3.3003,-3.3108,-3.3108,-3.3108,-3.3108,-3.3108,-3.3622,-3.3582,-3.3535,-3.3421,-3.3337,-3.3261,-3.3169,-3.3121,-3.3074,-3.3046,-3.2997,-3.2996,-3.2986,-3.3027,-3.3027,-3.3026,-3.3026,-3.3026,-3.3026,-3.3603,-3.3549,-3.348,-3.3384,-3.3328,-3.3248,-3.3147,-3.3088,-3.3009,-3.298,-3.298,-3.2947,-3.3042,-3.3064,-3.3022,-3.3023,-3.3023,-3.3024,-3.3024,-3.3512,-3.3524,-3.3418,-3.3362,-3.3241,-3.3158,-3.3098,-3.2981,-3.2925,-3.2879,-3.2852,-3.2932,-3.2917,-3.2922,-3.294,-3.2868,-3.2868,-3.2868,-3.2868,-3.3479,-3.3468,-3.3346,-3.3259,-3.3168,-3.3101,-3.2973,-3.2892,-3.2808,-3.2768,-3.2772,-3.2792,-3.28,-3.278,-3.2789,-3.2804,-3.2699,-3.2699,-3.2699,-3.3417,-3.3395,-3.33,-3.3223,-3.3124,-3.3037,-3.2914,-3.2808,-3.2716,-3.2691,-3.2734,-3.2741,-3.2774,-3.2788,-3.2763,-3.2777,-3.2804,0,0]}]]